Mount Shasta, CA

8:26 AM PDT on October 17, 2017 (GMT -0700)
Mount Shasta

Weather History for KMHS - August, 2014

Change the Weather History Date:

Thursday, August 14, 2014

  Actual Average Record
Temperature  
Mean Temperature 64 °F 67 °F  
Max Temperature 80 °F 86 °F 100 °F (2008)
Min Temperature 48 °F 48 °F 38 °F (1927)
Degree Days  
Heating Degree Days 1 1  
Month to date heating degree days 1 14  
Since 1 June heating degree days 58 189  
Since 1 July heating degree days 2 47  
Cooling Degree Days 0 3  
Month to date cooling degree days 82 52  
Year to date cooling degree days 439 220  
Since 1 June cooling degree days 430 212  
Growing Degree Days 12 (Base 50)    
Moisture  
Dew Point 50 °F    
Average Humidity 61    
Maximum Humidity 86    
Minimum Humidity 39    
Precipitation  
Precipitation 0.00 in 0.01 in 0.66 in (1976)
Month to date precipitation 0.21 0.14  
Year to date precipitation 12.28 27.13  
Sea Level Pressure  
Sea Level Pressure 30.02 in    
Wind  
Wind Speed 1 mph (ENE)    
Max Wind Speed 8 mph    
Max Gust Speed 13 mph    
Visibility 10 miles    
Events      
T = Trace of Precipitation, MM = Missing Value Source: NWS Daily Summary

Daily Weather History Graph

Daily Weather History Graph

Search for Another Location

Airport or City:

Trip Planner

Search our weather history database for the weather conditions in past years. The results will help you decide how hot, cold, wet, or windy it might be!

Date:

Astronomy

Aug. 14, 2014 Rise Set
Actual Time 6:17 AM PDT 8:09 PM PDT
Civil Twilight 5:47 AM PDT 8:39 PM PDT
Nautical Twilight 5:11 AM PDT 9:15 PM PDT
Astronomical Twilight 4:32 AM PDT 9:54 PM PDT
Moon 10:32 PM PDT (8/14) 11:03 AM PDT (8/14)
Length of Visible Light 14h 51m
Length of Day
13h 52m
Waning Gibbous, 78% of the Moon is Illuminated
Aug 14
Waning Gibbous
Aug 17
Last Quarter
Aug 25
New
Sep 2
First Quarter
Sep 8
Full

Hourly Weather History & Observations

Time (PDT) Temp. Dew Point Humidity Pressure Visibility Wind Dir Wind Speed Gust Speed Precip Events Conditions
12:56 AM 55.0 °F 48.9 °F 80% 30.05 in 10.0 mi ENE 3.5 mph - N/A   Mostly Cloudy
1:56 AM 54.0 °F 48.0 °F 80% 30.04 in 10.0 mi Calm Calm - N/A   Mostly Cloudy
2:56 AM 52.0 °F 46.0 °F 80% 30.08 in 7.0 mi Calm Calm - N/A   Mostly Cloudy
3:56 AM 51.1 °F 45.0 °F 80% 30.08 in 7.0 mi ENE 3.5 mph - N/A   Scattered Clouds
4:56 AM 52.0 °F 46.0 °F 80% 30.06 in 9.0 mi Calm Calm - N/A   Overcast
5:56 AM 48.9 °F 45.0 °F 86% 30.06 in 9.0 mi Calm Calm - N/A   Clear
6:56 AM 48.0 °F 44.1 °F 86% 30.07 in 8.0 mi Calm Calm - N/A   Clear
7:56 AM 54.0 °F 46.9 °F 77% 30.08 in 10.0 mi Calm Calm - N/A   Partly Cloudy
8:56 AM 63.0 °F 51.1 °F 65% 30.06 in 10.0 mi Calm Calm - N/A   Partly Cloudy
9:56 AM 68.0 °F 52.0 °F 56% 30.04 in 10.0 mi Calm Calm - N/A   Clear
10:56 AM 73.9 °F 52.0 °F 46% 30.02 in 10.0 mi Calm Calm - N/A   Scattered Clouds
11:56 AM 71.1 °F 53.1 °F 53% 30.02 in 10.0 mi Calm Calm - N/A   Mostly Cloudy
12:56 PM 72.0 °F 51.1 °F 48% 30.01 in 10.0 mi Calm Calm - N/A   Mostly Cloudy
1:56 PM 73.9 °F 52.0 °F 46% 29.99 in 10.0 mi Calm Calm - N/A   Mostly Cloudy
2:56 PM 75.9 °F 51.1 °F 42% 29.98 in 10.0 mi Calm Calm - N/A   Overcast
3:56 PM 77.0 °F 50.0 °F 39% 29.96 in 10.0 mi Calm Calm - N/A   Overcast
4:56 PM 77.0 °F 52.0 °F 42% 29.95 in 10.0 mi Calm Calm - N/A   Mostly Cloudy
5:56 PM 75.9 °F 52.0 °F 43% 29.96 in 10.0 mi Calm Calm - N/A   Mostly Cloudy
6:56 PM 73.0 °F 51.1 °F 46% 29.97 in 10.0 mi Calm Calm - N/A   Overcast
7:56 PM 72.0 °F 51.1 °F 48% 29.98 in 10.0 mi ENE 3.5 mph - N/A   Overcast
8:56 PM 70.0 °F 51.1 °F 51% 29.99 in 10.0 mi Variable 5.8 mph - N/A   Overcast
9:56 PM 66.9 °F 51.1 °F 57% 30.00 in 10.0 mi Calm Calm - N/A   Mostly Cloudy
10:56 PM 64.0 °F 51.1 °F 63% 30.01 in 10.0 mi Variable 3.5 mph - N/A   Mostly Cloudy
11:56 PM 59.0 °F 51.1 °F 75% 30.03 in 10.0 mi Calm Calm - N/A   Partly Cloudy